This is the latest recevied weather packets stored in our database for station/object KB3KAV. If no packets are shown the sender has not sent any weather packets the latest 10 day(s).
| Time | Temp. | Humidity | Pressure | Rain* | Wind** | Luminosity | Snow |
|---|---|---|---|---|---|---|---|
| 1778191778 | 14.44° C | 43% | 1037 hPa | 0 mm | - | 95 W/m² | - |
| 1778191173 | 15° C | 40% | 1036.9 hPa | 0 mm | - | 109 W/m² | - |
| 1778190572 | 15° C | 40% | 1037.3 hPa | 0 mm | - | 393 W/m² | - |
| 1778189971 | 15.56° C | 40% | 1037.2 hPa | 0 mm | - | 207 W/m² | - |
| 1778189371 | 14.44° C | 41% | 1037.2 hPa | 0 mm | - | 141 W/m² | - |
| 1778188770 | 14.44° C | 41% | 1037.5 hPa | 0 mm | - | 138 W/m² | - |
| 1778188169 | 14.44° C | 41% | 1037.3 hPa | 0 mm | - | 546 W/m² | - |
| 1778187569 | 14.44° C | 41% | 1037.5 hPa | 0 mm | - | 114 W/m² | - |
| 1778186968 | 15° C | 39% | 1037.2 hPa | 0 mm | - | 113 W/m² | - |
| 1778186368 | 15° C | 39% | 1037 hPa | 0 mm | - | 173 W/m² | - |
| 1778185762 | 15.56° C | 37% | 1036.9 hPa | 0 mm | - | 232 W/m² | - |
| 1778185160 | 15° C | 40% | 1037.2 hPa | 0 mm | - | 180 W/m² | - |
| 1778184559 | 14.44° C | 41% | 1037.1 hPa | 0 mm | - | 104 W/m² | - |
| 1778183956 | 15° C | 41% | 1037.5 hPa | 0 mm | - | 124 W/m² | - |
| 1778183351 | 15° C | 37% | 1037.2 hPa | 0 mm | - | 123 W/m² | - |
| 1778182749 | 15° C | 36% | 1037.5 hPa | 0 mm | - | 223 W/m² | - |
| 1778182148 | 15.56° C | 34% | 1037.6 hPa | 0 mm | - | 840 W/m² | - |
| 1778181547 | 15° C | 35% | 1037.5 hPa | 0 mm | - | 740 W/m² | - |
| 1778180945 | 15° C | 36% | 1037.6 hPa | 0 mm | - | 252 W/m² | - |
| 1778180342 | 15.56° C | 36% | 1037.6 hPa | 0 mm | - | 256 W/m² | - |
| 1778179741 | 16.11° C | 34% | 1037.7 hPa | 0 mm | - | 542 W/m² | - |
| 1778179142 | 15.56° C | 40% | 1038 hPa | 0 mm | - | 838 W/m² | - |
| 1778178536 | 14.44° C | 37% | 1038.1 hPa | 0 mm | - | 217 W/m² | - |
| 1778177934 | 15° C | 37% | 1038.4 hPa | 0 mm | - | 235 W/m² | - |
| 1778177333 | 15° C | 37% | 1038.4 hPa | 0 mm | - | 881 W/m² | - |
* Rain latest hour (hover to see other rain measurements)
** Current wind speed in m/s (hover to see current wind gust speed)